ARIANE 5 DEB, 43384

Orbit data source: Space-Track

ARIANE 5 DEB, 43384 is space debris in HEO originally from a launch on Thu, 12 Jun 2008 UTC launched from the French Guiana (FRGUI). Debris objects in space refer to the collection of defunct objects orbiting the Earth. Examples of debris include non-operational satellites, rocket bodies, and fragments generated from explosions, collisions, or faulty payload assembly.

Loading next visibility...
Identifier
43384, 2008-030G
Orbit
HEO
Country
Flag of FRFR
Related business
Manufacturer
Thales Alenia
Mission
Spacecraft
Bus & Motor
Unknown
Mass
Unknown
Launch date (UTC)
2008-06-12 (17 years ago)
Launch vehicle
Unknown
Launch site
French Guiana (FRGUI)
Object type
Payload
Rocket body
Debris
Shape & HBR
Unknown
Radar Cross Section
Medium (>0.1 m² and <1 m²)

Expand to show TLE details & history
Last TLE update: 15 hours ago

TLE from 15 hours ago
0 ARIANE 5 DEB
1 43384U 08030G   25258.15688921  .00000748  00000-0  20319-2 0  9991
2 43384   2.1886  22.1044 7196403 217.0104  60.3198  2.30583078139856
Epoch: 2025-09-15T03:45Z
TLE epoch observation values (Epoch: 2025-09-15T03:45:55.227Z)
Latitude
0.00001°
Longitude
-28.72714°
Altitude
21,101.061 km
Speed
3.541 km/s
True Right ascension
01h 28m 28s
True Declination
0° 00' 00"
Sunlit
Object was in daylight at epoch
Visualization orbit readout
Latitude
Unknown
Longitude
Unknown
Altitude
Unknown
Speed
Unknown
Apparent Right ascension
Unknown
Apparent Declination
Unknown
Sunlit
N/A
Visualization observer readout
Local Sidereal Time
11:49:05
Azimuth
Unknown
Elevation
Unknown
Doppler factor
Unknown
Orbital elements
Apogee altitude
35,249.853 km
Perigee altitude
408.637 km
Semi-major axis
24,207.382 km
Eccentricity
0.71964
Inclination
2.1886°
RAAN
22.1044°
Arg. of periapsis
217.0104°
True anomaly
143.06988°
Mean anomaly
60.3198°
Eccentric anomaly
100.81922°
Mean motion
0.57626 °/min
Orbital period
624.71 mins
BSTAR
0.0020319
Loading maneuver chart data...
Computing Atmospheric mass density...
Loading historical data...
Loading historical data...
Loading historical data...
Loading historical data...
Loading historical data...
Loading historical data...
Loading historical data...

Documentation

Showing up to 5 results
|